Hourly Data Report for October 06, 2013

All times are specified in Local Standard Time (LST). Add 1 hour to adjust for Daylight Saving Time where and when it is observed.

KITCHENER/WATERLOO
ONTARIO

43°27'39.000" N
80°22'43.000" W
321.60 m
6144239
71368
YKF

Download Data

Hourly Data (October 2013)
Hourly Data Report for October 6, 2013
Temp Definition
°C
Dew Point Temp Definition
°C
Rel Hum Definition
%
Wind Dir Definition
10's deg

Wind Spd Definition
km/h
Visibility Definition
km
Stn Press Definition
kPa
Hmdx Definition


Wind Chill Definition


Weather Definition


TIME
00:00 Legend Double Dagger 14.5 11.3 81 8 18 16.1 97.71     LegendNANA
01:00 Legend Double Dagger 14.6 11.4 81 9 24 16.1 97.66     LegendNANA
02:00 Legend Double Dagger 14.5 11.6 83 9 26 16.1 97.62     LegendNANA
03:00 Legend Double Dagger 14.0 11.9 87 10 24 16.1 97.56     LegendNANA
04:00 Legend Double Dagger 13.8 12.4 91 10 18 16.1 97.52     LegendNANA
05:00 Legend Double Dagger 13.5 12.6 94 10 18 16.1 97.47     LegendNANA
06:00 Legend Double Dagger 13.7 13.2 97 10 15 2.0 97.47     LegendNANA
07:00 Legend Double Dagger 14.0 13.5 97 9 15 3.2 97.47     LegendNANA
08:00 Legend Double Dagger 14.6 14.1 97 15 8 3.6 97.45     LegendNANA
09:00 Legend Double Dagger 15.2 14.7 97 9 11 1.2 97.38     LegendNANA
10:00 Legend Double Dagger 16.1 15.6 97 12 5 1.0 97.34     LegendNANA
11:00 Legend Double Dagger 16.7 16.2 97 12 13 0.4 97.28     LegendNANA
12:00 Legend Double Dagger 17.4 16.9 97 13 11 0.2 97.25     LegendNANA
13:00 Legend Double Dagger 18.4 17.8 96 10 8 3.6 97.16     LegendNANA
14:00 Legend Double Dagger 19.3 18.3 94 9 13 4.8 97.07     LegendNANA
15:00 Legend Double Dagger 19.7 18.6 93 10 15 4.8 96.99     LegendNANA
16:00 Legend Double Dagger 21.6 18.6 83 20 9 11.3 96.95 28   LegendNANA
17:00 Legend Double Dagger 22.1 18.4 79 19 17 16.1 96.95 28   LegendNANA
18:00 Legend Double Dagger 21.4 18.3 82 19 8 16.1 96.95 28   LegendNANA
19:00 Legend Double Dagger 20.4 17.8 85 13 11 16.1 96.86 26   LegendNANA
20:00 Legend Double Dagger 18.6 17.5 93 11 17 8.1 96.79     LegendNANA
21:00 Legend Double Dagger 18.9 17.6 92 21 22 4.8 96.90     LegendNANA
22:00 Legend Double Dagger 17.8 16.6 92 23 13 16.1 96.77     LegendNANA
23:00 Legend Double Dagger 17.5 16.7 95 18 11 16.1 96.73     LegendNANA

Notes on Data Quality.

Legend

  • E = Estimated
  • M = Missing
  • NA = Not Available
  • ‡ = Partner data that is not subject to review by the National Climate Archives
Date modified: